Weather History for Marysville, OH

Change the Weather History Date:

Thursday, January 24, 2013

  Actual Average (KDLZ) Record (KDLZ)
Temperature  
Mean Temperature 14 °F -  
Max Temperature 20 °F 37 °F 67 °F (1967)
Min Temperature 9 °F 17 °F -19 °F (1963)
Degree Days  
Heating Degree Days 51    
Moisture  
Dew Point 8 °F    
Average Humidity 71    
Maximum Humidity 86    
Minimum Humidity 54    
Precipitation  
Precipitation 0.00 in - - ()
Sea Level Pressure  
Sea Level Pressure 30.40 in    
Wind  
Wind Speed 9 mph (North)    
Max Wind Speed 20 mph    
Max Gust Speed 26 mph    
Visibility 9 miles    
Events      
Averages and records for this station are not official NWS values.
T = Trace of Precipitation, MM = Missing Value Source: NWS Daily Summary

Daily Weather History Graph

Daily Weather History Graph

Search for Another Location

Airport:

Trip Planner

Search our weather history database for the weather conditions in past years. The results will help you decide how hot, cold, wet, or windy it might be!

Date:

Astronomy

Jan. 24, 2013 Rise Set
Actual Time 7:48 AM EST 5:42 PM EST
Civil Twilight 7:19 AM EST 6:12 PM EST
Nautical Twilight 6:46 AM EST 6:45 PM EST
Astronomical Twilight 6:14 AM EST 7:17 PM EST
Moon 3:43 PM EST (1/24) 5:45 AM EST (1/24)
Length of Visible Light 10h 52m
Length of Day
9h 54m
Waxing Gibbous, 94% of the Moon is Illuminated
Jan 24
Waxing Gibbous
Jan 26
Full
Feb 3
Last Quarter
Feb 10
New
Feb 17
First Quarter

Hourly Weather History & Observations

Time (EST) Temp. Windchill Dew Point Humidity Pressure Visibility Wind Dir Wind Speed Gust Speed Precip Events Conditions
12:13 AM 16.7 °F 6.2 °F 13.1 °F 86% 30.05 in 5.0 mi West 8.1 mph - N/A   Overcast
12:34 AM 16.7 °F 7.2 °F 12.7 °F 84% 30.05 in 7.0 mi West 6.9 mph - N/A   Overcast
12:54 AM 17.2 °F 6.0 °F 13.1 °F 84% 30.06 in 7.0 mi WNW 9.2 mph - N/A   Overcast
1:13 AM 17.6 °F 4.3 °F 13.1 °F 83% 30.07 in 5.0 mi WNW 12.7 mph - N/A   Overcast
1:34 AM 17.6 °F 4.3 °F 13.1 °F 83% 30.07 in 4.0 mi WNW 12.7 mph - N/A   Overcast
1:54 AM 18.1 °F 3.9 °F 13.6 °F 83% 30.08 in 3.0 mi WNW 15.0 mph 18.4 mph N/A   Overcast
2:13 AM 18.1 °F 4.4 °F 13.1 °F 81% 30.09 in 4.0 mi NW 13.8 mph 20.7 mph N/A   Overcast
2:34 AM 18.0 °F 4.2 °F 12.4 °F 79% 30.11 in 4.0 mi NW 13.8 mph 24.2 mph N/A   Overcast
2:54 AM 17.4 °F 2.9 °F 11.3 °F 77% 30.14 in 7.0 mi NNW 15.0 mph 24.2 mph N/A   Overcast
3:13 AM 17.6 °F 1.7 °F 10.9 °F 75% 30.15 in 5.0 mi NNW 18.4 mph 23.0 mph N/A   Overcast
3:34 AM 16.2 °F 1.3 °F 8.4 °F 72% 30.17 in - NNW 15.0 mph 26.5 mph N/A   Mostly Cloudy
3:54 AM 15.1 °F -0.1 °F 8.2 °F 74% 30.20 in - NNW 15.0 mph 23.0 mph N/A   Scattered Clouds
4:13 AM 14.4 °F -1.0 °F 8.1 °F 76% 30.21 in 10.0 mi NNW 15.0 mph 23.0 mph N/A   Mostly Cloudy
4:34 AM 14.0 °F -3.4 °F 7.7 °F 76% 30.22 in 10.0 mi North 19.6 mph 25.3 mph N/A   Overcast
4:54 AM 14.0 °F -2.5 °F 7.5 °F 75% 30.24 in 7.0 mi North 17.3 mph 25.3 mph N/A   Overcast
5:13 AM 12.7 °F -2.5 °F 6.8 °F 77% 30.25 in 10.0 mi North 13.8 mph 18.4 mph N/A   Overcast
5:34 AM 12.9 °F -2.2 °F 6.8 °F 77% 30.28 in 10.0 mi North 13.8 mph 20.7 mph N/A   Overcast
5:54 AM 12.7 °F -2.5 °F 6.4 °F 76% 30.29 in 10.0 mi North 13.8 mph 24.2 mph N/A   Overcast
6:13 AM 12.6 °F -2.7 °F 6.4 °F 77% 30.31 in 10.0 mi North 13.8 mph 17.3 mph N/A   Overcast
6:34 AM 12.2 °F -2.5 °F 6.1 °F 76% 30.32 in 10.0 mi North 12.7 mph - N/A   Overcast
6:54 AM 12.0 °F -1.3 °F 5.9 °F 76% 30.35 in 10.0 mi North 10.4 mph 17.3 mph N/A   Overcast
7:13 AM 11.5 °F -3.4 °F 5.7 °F 78% 30.37 in 10.0 mi North 12.7 mph - N/A   Overcast
7:34 AM 10.2 °F -2.7 °F 4.8 °F 79% 30.38 in 10.0 mi North 9.2 mph - N/A   Overcast
7:54 AM 9.5 °F -1.5 °F 4.5 °F 80% 30.40 in 10.0 mi North 6.9 mph - N/A   Scattered Clouds
8:13 AM 9.3 °F -1.7 °F 4.3 °F 80% 30.41 in 10.0 mi North 6.9 mph - N/A   Clear
8:34 AM 10.4 °F -3.3 °F 4.6 °F 78% 30.42 in 10.0 mi NNW 10.4 mph - N/A   Clear
8:54 AM 10.4 °F -3.3 °F 4.6 °F 78% 30.42 in 10.0 mi North 10.4 mph - N/A   Clear
9:14 AM 11.3 °F -0.4 °F 5.0 °F 76% 30.44 in 10.0 mi North 8.1 mph - N/A   Clear
9:34 AM 11.8 °F 0.3 °F 5.4 °F 75% 30.45 in 10.0 mi NNW 8.1 mph - N/A   Clear
9:54 AM 12.7 °F 1.4 °F 5.5 °F 73% 30.47 in 10.0 mi North 8.1 mph - N/A   Clear
10:14 AM 13.1 °F 0.1 °F 4.8 °F 70% 30.48 in 10.0 mi North 10.4 mph - N/A   Clear
10:34 AM 13.8 °F 1.0 °F 5.9 °F 71% 30.50 in 10.0 mi North 10.4 mph - N/A   Clear
10:54 AM 14.0 °F 1.2 °F 6.3 °F 71% 30.52 in 10.0 mi North 10.4 mph - N/A   Scattered Clouds
11:14 AM 14.7 °F 2.9 °F 7.2 °F 72% 30.54 in 10.0 mi North 9.2 mph - N/A   Mostly Cloudy
11:34 AM 14.5 °F 3.6 °F 7.0 °F 72% 30.54 in 10.0 mi North 8.1 mph - N/A   Overcast
11:54 AM 14.9 °F 7.5 °F 7.5 °F 73% 30.54 in 10.0 mi North 4.6 mph - N/A   Overcast
12:14 PM 16.7 °F 7.2 °F 9.0 °F 72% 30.54 in 10.0 mi NNE 6.9 mph - N/A   Overcast
12:34 PM 16.2 °F 7.6 °F 8.4 °F 72% 30.54 in 10.0 mi NNE 5.8 mph - N/A   Mostly Cloudy
12:54 PM 17.1 °F 10.0 °F 8.4 °F 69% 30.53 in 10.0 mi NNE 4.6 mph - N/A   Mostly Cloudy
1:14 PM 18.0 °F 8.7 °F 9.1 °F 68% 30.52 in 10.0 mi North 6.9 mph - N/A   Mostly Cloudy
1:33 PM 18.5 °F 10.4 °F 7.7 °F 63% 30.52 in 10.0 mi NNE 5.8 mph - N/A   Scattered Clouds
1:54 PM 19.4 °F 12.8 °F 9.1 °F 64% 30.52 in 10.0 mi North 4.6 mph - N/A   Clear
2:13 PM 19.2 °F 9.3 °F 7.3 °F 60% 30.50 in 10.0 mi North 8.1 mph - N/A   Clear
2:34 PM 19.9 °F 13.4 °F 7.7 °F 59% 30.50 in 10.0 mi NE 4.6 mph - N/A   Clear
2:54 PM 19.8 °F 13.2 °F 7.3 °F 59% 30.50 in 10.0 mi ENE 4.6 mph - N/A   Clear
3:13 PM 19.4 °F 10.4 °F 5.2 °F 54% 30.51 in 10.0 mi East 6.9 mph - N/A   Clear
3:34 PM 19.8 °F 11.9 °F 5.9 °F 55% 30.50 in 10.0 mi ENE 5.8 mph - N/A   Clear
3:54 PM 19.4 °F 10.4 °F 5.0 °F 54% 30.50 in 10.0 mi NE 6.9 mph - N/A   Clear
4:14 PM 19.4 °F 9.5 °F 6.4 °F 57% 30.50 in 10.0 mi NE 8.1 mph - N/A   Clear
4:34 PM 19.0 °F 12.3 °F 6.4 °F 58% 30.49 in 10.0 mi East 4.6 mph - N/A   Clear
4:54 PM 18.9 °F 10.8 °F 5.4 °F 56% 30.50 in 10.0 mi East 5.8 mph - N/A   Clear
5:14 PM 18.3 °F 9.1 °F 6.4 °F 60% 30.50 in 10.0 mi East 6.9 mph - N/A   Clear
5:34 PM 17.6 °F 10.7 °F 6.4 °F 62% 30.51 in 10.0 mi East 4.6 mph - N/A   Clear
5:54 PM 16.7 °F 11.2 °F 6.8 °F 65% 30.52 in 10.0 mi East 3.5 mph - N/A   Clear
6:14 PM 16.7 °F 11.2 °F 6.8 °F 65% 30.52 in 10.0 mi East 3.5 mph - N/A   Clear
6:34 PM 16.2 °F 10.6 °F 6.8 °F 67% 30.52 in 10.0 mi ENE 3.5 mph - N/A   Clear
6:54 PM 16.3 °F - 6.4 °F 65% 30.52 in 10.0 mi Calm Calm - N/A   Clear
7:14 PM 15.4 °F - 6.6 °F 68% 30.52 in 10.0 mi Calm Calm - N/A   Clear
7:34 PM 14.9 °F - 6.8 °F 70% 30.52 in 10.0 mi Calm Calm - N/A   Clear
7:53 PM 14.4 °F - 7.3 °F 74% 30.52 in 10.0 mi Calm Calm - N/A   Clear
8:14 PM 14.0 °F - 8.1 °F 77% 30.51 in 10.0 mi Calm Calm - N/A   Clear
8:34 PM 14.0 °F - 8.6 °F 79% 30.50 in 10.0 mi Calm Calm - N/A   Clear
8:53 PM 14.0 °F - 8.6 °F 79% 30.49 in 10.0 mi Calm Calm - N/A   Clear
9:14 PM 15.1 °F - 7.9 °F 73% 30.50 in 10.0 mi Calm Calm - N/A   Clear
9:34 PM 15.8 °F - 8.1 °F 72% 30.48 in 10.0 mi Calm Calm - N/A   Clear
9:53 PM 16.3 °F 10.8 °F 7.7 °F 69% 30.47 in 10.0 mi SE 3.5 mph - N/A   Clear
10:14 PM 16.7 °F - 7.7 °F 68% 30.48 in 10.0 mi Calm Calm - N/A   Clear
10:34 PM 16.7 °F - 7.7 °F 68% 30.48 in 10.0 mi Calm Calm - N/A   Clear
10:53 PM 17.1 °F - 7.3 °F 66% 30.46 in 10.0 mi Calm Calm - N/A   Clear
11:14 PM 16.9 °F 9.8 °F 8.4 °F 69% 30.46 in 10.0 mi East 4.6 mph - N/A   Scattered Clouds
11:34 PM 16.9 °F 11.5 °F 7.7 °F 67% 30.46 in 10.0 mi ESE 3.5 mph - N/A   Mostly Cloudy
11:53 PM 16.9 °F 8.5 °F 7.7 °F 67% 30.45 in 10.0 mi ESE 5.8 mph - N/A   Mostly Cloudy